Hourly Data Report for October 27, 2013

All times are specified in Local Standard Time (LST). Add 1 hour to adjust for Daylight Saving Time where and when it is observed.

TORONTO INTL A
ONTARIO

43°40'36.000" N
79°37'50.000" W
173.40 m
6158731
71624
YYZ

Download Data

Hourly Data (October 2013)
Hourly Data Report for October 27, 2013
Temp Definition
°C
Dew Point Temp Definition
°C
Rel Hum Definition
%
Wind Dir Definition
10's deg

Wind Spd Definition
km/h
Visibility Definition
km
Stn Press Definition
kPa
Hmdx Definition


Wind Chill Definition


Weather Definition


TIME
00:00 Legend Double Dagger 3.4 1.1 85 28 18 24.1 98.92     LegendNANA
01:00 Legend Double Dagger 2.5 0.4 86 28 17 24.1 99.00     Mainly Clear
02:00 Legend Double Dagger 3.1 1.0 86 27 18 24.1 99.06     LegendNANA
03:00 Legend Double Dagger 2.0 0.2 88 28 12 24.1 99.07     LegendNANA
04:00 Legend Double Dagger 1.9 0.1 88 27 15 24.1 99.11     Mainly Clear
05:00 Legend Double Dagger 2.1 0.3 88 27 17 24.1 99.16     LegendNANA
06:00 Legend Double Dagger 2.2 0.4 88 28 13 24.1 99.22     LegendNANA
07:00 Legend Double Dagger 2.7 1.1 89 25 13 24.1 99.26     Mostly Cloudy
08:00 Legend Double Dagger 3.4 1.3 86 27 21 24.1 99.36     LegendNANA
09:00 Legend Double Dagger 5.0 2.4 83 26 17 24.1 99.40     LegendNANA
10:00 Legend Double Dagger 5.9 2.4 78 27 19 24.1 99.43     Mostly Cloudy
11:00 Legend Double Dagger 6.5 2.0 73 27 25 24.1 99.48     LegendNANA
12:00 Legend Double Dagger 7.5 1.8 67 27 20 24.1 99.46     LegendNANA
13:00 Legend Double Dagger 5.5 2.5 81 25 21 24.1 99.45     Rain Showers
14:00 Legend Double Dagger 6.8 1.7 70 30 15 24.1 99.43     LegendNANA
15:00 Legend Double Dagger 7.4 2.1 69 26 17 24.1 99.43     LegendNANA
16:00 Legend Double Dagger 7.6 0.4 60 26 21 24.1 99.47     Mostly Cloudy
17:00 Legend Double Dagger 6.8 -0.2 61 25 23 24.1 99.52     LegendNANA
18:00 Legend Double Dagger 5.7 -1.0 62 24 14 24.1 99.54     LegendNANA
19:00 Legend Double Dagger 6.5 -1.2 58 19 5 24.1 99.55     Cloudy
20:00 Legend Double Dagger 6.4 -1.0 59 20 10 24.1 99.53     LegendNANA
21:00 Legend Double Dagger 6.1 -1.1 60 19 6 24.1 99.55     LegendNANA
22:00 Legend Double Dagger 5.9 -0.4 64 16 6 24.1 99.56     Cloudy
23:00 Legend Double Dagger 5.7 -0.2 66 17 8 24.1 99.51     LegendNANA

Notes on Data Quality.

Legend

  • E = Estimated
  • M = Missing
  • NA = Not Available
  • ‡ = Partner data that is not subject to review by the National Climate Archives
Date modified: